Weather History for Truckee-Tahoe, CA

Change the Weather History Date:

Monday, May 12, 2014

  Actual Average Record
Temperature  
Mean Temperature 44 °F -  
Max Temperature 64 °F 62 °F 81 °F (1988)
Min Temperature 23 °F 30 °F 21 °F (1953)
Degree Days  
Heating Degree Days 22    
Moisture  
Dew Point 20 °F    
Average Humidity 53    
Maximum Humidity 86    
Minimum Humidity 14    
Precipitation  
Precipitation 0.00 in - - ()
Sea Level Pressure  
Sea Level Pressure 30.30 in    
Wind  
Wind Speed 2 mph (ESE)    
Max Wind Speed 12 mph    
Max Gust Speed 20 mph    
Visibility 10 miles    
Events      
Averages and records for this station are not official NWS values.
T = Trace of Precipitation, MM = Missing Value Source: NWS Daily Summary

Daily Weather History Graph

Daily Weather History Graph

Search for Another Location

Airport:

Trip Planner

Search our weather history database for the weather conditions in past years. The results will help you decide how hot, cold, wet, or windy it might be!

Date:

Astronomy

May. 12, 2014 Rise Set
Actual Time 5:49 AM PDT 8:04 PM PDT
Civil Twilight 5:19 AM PDT 8:34 PM PDT
Nautical Twilight 4:42 AM PDT 9:11 PM PDT
Astronomical Twilight 4:02 AM PDT 9:52 PM PDT
Moon 6:08 PM PDT (5/12) 4:30 AM PDT (5/12)
Length of Visible Light 15h 14m
Length of Day
14h 14m
Waxing Gibbous, 95% of the Moon is Illuminated
May 12
Waxing Gibbous
May 14
Full
May 21
Last Quarter
May 28
New
Jun 5
First Quarter

Hourly Weather History & Observations

Time (PDT) Temp. Windchill Dew Point Humidity Pressure Visibility Wind Dir Wind Speed Gust Speed Precip Events Conditions
12:15 AM 28.4 °F - 17.6 °F 64% 30.26 in 10.0 mi Calm Calm - N/A   Clear
12:35 AM 28.4 °F - 17.6 °F 64% 30.27 in 10.0 mi Calm Calm - N/A   Clear
12:55 AM 28.4 °F - 19.4 °F 69% 30.28 in 10.0 mi Calm Calm - N/A   Clear
1:15 AM 26.6 °F - 19.4 °F 74% 30.28 in 10.0 mi Calm Calm - N/A   Clear
1:35 AM 23.0 °F - 17.6 °F 80% 30.28 in 10.0 mi Calm Calm - N/A   Clear
1:55 AM 26.6 °F - 19.4 °F 74% 30.28 in 10.0 mi Calm Calm - N/A   Clear
2:15 AM 24.8 °F - 19.4 °F 80% 30.28 in 10.0 mi Calm Calm - N/A   Clear
2:35 AM 23.0 °F - 17.6 °F 80% 30.28 in 10.0 mi Calm Calm - N/A   Clear
2:55 AM 24.8 °F - 17.6 °F 74% 30.28 in 10.0 mi Calm Calm - N/A   Clear
3:15 AM 24.8 °F - 19.4 °F 80% 30.28 in 10.0 mi Calm Calm - N/A   Clear
3:35 AM 26.6 °F - 19.4 °F 74% 30.28 in 10.0 mi Calm Calm - N/A   Clear
3:55 AM 23.0 °F - 19.4 °F 86% 30.28 in 10.0 mi Calm Calm - N/A   Clear
4:15 AM 23.0 °F - 19.4 °F 86% 30.28 in 10.0 mi Calm Calm - N/A   Clear
4:35 AM 23.0 °F - 19.4 °F 86% 30.28 in 10.0 mi Calm Calm - N/A   Clear
4:55 AM 24.8 °F - 19.4 °F 80% 30.28 in 10.0 mi Calm Calm - N/A   Clear
5:15 AM 23.0 °F - 17.6 °F 80% 30.28 in 10.0 mi Calm Calm - N/A   Clear
5:35 AM 23.0 °F - 19.4 °F 86% 30.28 in 10.0 mi Calm Calm - N/A   Clear
5:55 AM 23.0 °F - 19.4 °F 86% 30.29 in 10.0 mi Calm Calm - N/A   Clear
6:15 AM 23.0 °F - 17.6 °F 80% 30.29 in 10.0 mi Calm Calm - N/A   Clear
6:35 AM 23.0 °F - 19.4 °F 86% 30.29 in 10.0 mi Calm Calm - N/A   Clear
7:45 AM 30.2 °F - 21.2 °F 69% 30.31 in 10.0 mi Calm Calm - N/A   Clear
8:45 AM 37.4 °F - 21.2 °F 52% 30.31 in 10.0 mi Calm Calm - N/A   Clear
9:55 AM 51.8 °F - 21.2 °F 30% 30.31 in 10.0 mi North 5.8 mph - N/A   Clear
10:45 AM 55.4 °F - 21.2 °F 26% 30.30 in 10.0 mi Calm Calm - N/A   Scattered Clouds
11:55 AM 57.2 °F - 23.0 °F 27% 30.31 in 10.0 mi South 11.5 mph 17.3 mph N/A   Mostly Cloudy
12:45 PM 59.0 °F - 21.2 °F 23% 30.31 in 10.0 mi SSE 11.5 mph 19.6 mph N/A   Mostly Cloudy
1:45 PM 62.6 °F - 21.2 °F 20% 30.29 in 10.0 mi SE 6.9 mph 16.1 mph N/A   Scattered Clouds
2:45 PM 64.4 °F - 21.2 °F 19% 30.30 in 10.0 mi SW 6.9 mph 19.6 mph N/A   Mostly Cloudy
3:50 PM 64.4 °F - 21.2 °F 19% 30.28 in 10.0 mi SE 4.6 mph - N/A   Mostly Cloudy
4:45 PM 64.4 °F - 17.6 °F 16% 30.28 in 10.0 mi North 8.1 mph - N/A   Mostly Cloudy
5:45 PM 64.4 °F - 14.0 °F 14% 30.28 in 10.0 mi SSW 9.2 mph - N/A   Mostly Cloudy
6:15 PM 62.6 °F - 14.0 °F 15% 30.28 in 10.0 mi NNE 9.2 mph - N/A   Clear
6:35 PM 62.6 °F - 12.2 °F 14% 30.28 in 10.0 mi NNE 6.9 mph - N/A   Clear
6:55 PM 60.8 °F - 14.0 °F 16% 30.28 in 10.0 mi NNE 8.1 mph - N/A   Clear
7:15 PM 60.8 °F - 15.8 °F 17% 30.29 in 10.0 mi NNE 6.9 mph - N/A   Clear
7:35 PM 59.0 °F - 17.6 °F 20% 30.29 in 10.0 mi NE 5.8 mph - N/A   Clear
7:55 PM 55.4 °F - 17.6 °F 23% 30.29 in 10.0 mi NE 6.9 mph - N/A   Clear
8:15 PM 53.6 °F - 17.6 °F 24% 30.29 in 10.0 mi NE 5.8 mph - N/A   Clear
8:35 PM 50.0 °F - 23.0 °F 35% 30.31 in 10.0 mi SSE 3.5 mph - N/A   Clear
8:55 PM 48.2 °F - 21.2 °F 34% 30.31 in 10.0 mi Calm Calm - N/A   Clear
9:15 PM 42.8 °F 41.1 °F 23.0 °F 46% 30.32 in 10.0 mi SSE 3.5 mph - N/A   Clear
9:35 PM 41.0 °F 39.0 °F 26.6 °F 57% 30.33 in 10.0 mi South 3.5 mph - N/A   Clear
9:55 PM 41.0 °F 39.0 °F 26.6 °F 57% 30.34 in 10.0 mi SSE 3.5 mph - N/A   Clear
10:15 PM 37.4 °F 32.8 °F 24.8 °F 60% 30.34 in 10.0 mi SSE 5.8 mph - N/A   Clear
10:35 PM 37.4 °F 34.9 °F 23.0 °F 56% 30.34 in 10.0 mi SSE 3.5 mph - N/A   Clear
10:55 PM 35.6 °F 32.8 °F 23.0 °F 60% 30.35 in 10.0 mi South 3.5 mph - N/A   Clear
11:15 PM 37.4 °F - 26.6 °F 65% 30.35 in 10.0 mi Calm Calm - N/A   Clear
11:35 PM 35.6 °F - 24.8 °F 65% 30.35 in 10.0 mi Calm Calm - N/A   Clear
11:55 PM 35.6 °F - 23.0 °F 60% 30.35 in 10.0 mi Calm Calm - N/A   Clear